Orbital Elements at Epoch 2459200.5 (2020-Dec-17.0) TDB
Reference: JPL 23 (heliocentric ecliptic J2000)
Element | Value | Uncertainty (1-sigma) | Units |
e | .05250443189950435 | 5.1418e-08 | |
a | 2.725854008747319 | 2.1629e-08 | au |
q | 2.582734592577055 | 1.4415e-07 | au |
i | 14.29474941113912 | 5.8117e-06 | deg |
node | 277.2715739794637 | 2.3332e-05 | deg |
peri | 2.851005613368043 | 6.7214e-05 | deg |
M | 235.0446217041315 | 6.353e-05 | deg |
tp | 2459771.064527946441 (2022-Jul-10.56452795) | 0.00028865 | TDB |
period | 1643.812638255284 4.50 | 1.9565e-05 5.357e-08 | d yr |
n | .219003061311232 | 2.6066e-09 | deg/d |
Q | 2.868973424917584 | 2.2765e-08 | au |
|
| | Orbit Determination Parameters
Additional Information
|